When you browse on this site, cookies collect data to enhance your experience and personalize the content and advertising you see.
Visit our Privacy Policy to learn more. By continuing to use the site, you agree to this use of cookies and data.
  • In Spain
  • List of Countries
  • For 7 days
  • Water Temperature
  • Weather Map
  • Weather Widgets
  • user-avatar
    Login

    Hourly Weather Zabid

    Today, 17 November, Sunday

    Time Temperature Precipitation Wind Pressure Humidity
    00:00 +29°C° 0 mm 4 mps 749 mmHg 62%
    01:00 +29°C° 0 mm 4 mps 749 mmHg 62%
    02:00 +29°C° 0 mm 3 mps 748 mmHg 63%
    03:00 +28°C° 0 mm 3 mps 748 mmHg 63%
    04:00 +28°C° 0 mm 2 mps 748 mmHg 64%
    05:00 +28°C° 0 mm 2 mps 749 mmHg 65%
    06:00 +28°C° 0 mm 1 mps 749 mmHg 66%
    07:00 +29°C° 0 mm 1 mps 749 mmHg 61%
    08:00 +30°C° 0 mm 1 mps 750 mmHg 57%
    09:00 +31°C° 0 mm 1 mps 750 mmHg 52%
    10:00 +34°C° 0 mm 2 mps 750 mmHg 47%
    11:00 +35°C° 0 mm 3 mps 749 mmHg 42%
    12:00 +36°C° 0 mm 4 mps 749 mmHg 37%
    13:00 +36°C° 0 mm 5 mps 748 mmHg 38%
    14:00 +36°C° 0 mm 7 mps 748 mmHg 39%
    15:00 +37°C° 0 mm 8 mps 747 mmHg 40%
    16:00 +35°C° 0 mm 7 mps 748 mmHg 43%
    17:00 +34°C° 0 mm 7 mps 748 mmHg 47%
    18:00 +33°C° 0 mm 7 mps 749 mmHg 51%
    19:00 +32°C° 0 mm 6 mps 749 mmHg 53%
    20:00 +32°C° 0 mm 6 mps 749 mmHg 55%
    21:00 +30°C° 0 mm 5 mps 750 mmHg 56%
    22:00 +30°C° 0 mm 5 mps 750 mmHg 57%
    23:00 +30°C° 0 mm 4 mps 750 mmHg 58%

    Tomorrow, 18 November, Monday

    Time Temperature Precipitation Wind Pressure Humidity
    00:00 +29°C° 0 mm 3 mps 750 mmHg 59%
    01:00 +29°C° 0 mm 3 mps 749 mmHg 60%
    02:00 +29°C° 0 mm 2 mps 749 mmHg 62%
    03:00 +28°C° 0 mm 2 mps 749 mmHg 63%
    04:00 +28°C° 0 mm 2 mps 749 mmHg 65%
    05:00 +28°C° 0 mm 1 mps 750 mmHg 66%
    06:00 +28°C° 0 mm 1 mps 750 mmHg 68%
    07:00 +29°C° 0 mm 1 mps 750 mmHg 64%
    08:00 +30°C° 0 mm 2 mps 751 mmHg 60%
    09:00 +31°C° 0 mm 2 mps 751 mmHg 56%
    10:00 +33°C° 0 mm 3 mps 751 mmHg 51%
    11:00 +35°C° 0 mm 3 mps 750 mmHg 46%
    12:00 +36°C° 0 mm 4 mps 750 mmHg 41%
    13:00 +36°C° 0 mm 5 mps 749 mmHg 39%
    14:00 +36°C° 0 mm 6 mps 749 mmHg 37%
    15:00 +38°C° 0 mm 7 mps 748 mmHg 35%
    16:00 +35°C° 0 mm 7 mps 748 mmHg 39%
    17:00 +34°C° 0 mm 6 mps 748 mmHg 43%
    18:00 +33°C° 0 mm 6 mps 749 mmHg 47%
    19:00 +33°C° 0 mm 6 mps 749 mmHg 48%
    20:00 +33°C° 0 mm 5 mps 750 mmHg 49%
    21:00 +32°C° 0 mm 4 mps 750 mmHg 50%
    22:00 +32°C° 0 mm 4 mps 750 mmHg 53%
    23:00 +30°C° 0 mm 3 mps 750 mmHg 55%

    Day after tomorrow, 19 November, Tuesday

    Time Temperature Precipitation Wind Pressure Humidity
    00:00 +30°C° 0 mm 3 mps 750 mmHg 57%
    01:00 +30°C° 0 mm 2 mps 750 mmHg 58%
    02:00 +29°C° 0 mm 2 mps 749 mmHg 58%
    03:00 +29°C° 0 mm 2 mps 749 mmHg 59%
    04:00 +29°C° 0 mm 2 mps 749 mmHg 61%
    05:00 +28°C° 0 mm 2 mps 750 mmHg 64%
    06:00 +28°C° 0 mm 3 mps 750 mmHg 67%
    07:00 +29°C° 0 mm 3 mps 750 mmHg 62%
    08:00 +30°C° 0 mm 3 mps 751 mmHg 57%
    09:00 +31°C° 0 mm 3 mps 751 mmHg 52%
    10:00 +34°C° 0 mm 3 mps 750 mmHg 47%
    11:00 +35°C° 0 mm 4 mps 750 mmHg 42%
    12:00 +36°C° 0 mm 4 mps 749 mmHg 37%
    13:00 +36°C° 0 mm 5 mps 749 mmHg 37%
    14:00 +38°C° 0 mm 6 mps 748 mmHg 38%
    15:00 +38°C° 0 mm 7 mps 747 mmHg 38%
    16:00 +35°C° 0 mm 6 mps 748 mmHg 43%
    17:00 +34°C° 0 mm 6 mps 748 mmHg 48%
    18:00 +33°C° 0 mm 6 mps 748 mmHg 53%
    19:00 +33°C° 0 mm 5 mps 749 mmHg 54%
    20:00 +33°C° 0 mm 4 mps 749 mmHg 54%
    21:00 +31°C° 0 mm 3 mps 749 mmHg 55%
    22:00 +31°C° 0 mm 3 mps 749 mmHg 57%
    23:00 +31°C° 0 mm 3 mps 749 mmHg 59%

    20 November, Wednesday

    Time Temperature Precipitation Wind Pressure Humidity
    00:00 +30°C° 0 mm 2 mps 749 mmHg 61%
    01:00 +30°C° 0 mm 2 mps 749 mmHg 62%
    02:00 +30°C° 0 mm 2 mps 748 mmHg 64%
    03:00 +29°C° 0 mm 1 mps 748 mmHg 65%
    04:00 +29°C° 0 mm 2 mps 748 mmHg 66%
    05:00 +29°C° 0 mm 2 mps 749 mmHg 67%
    06:00 +28°C° 0 mm 2 mps 749 mmHg 69%
    07:00 +29°C° 0 mm 2 mps 749 mmHg 65%
    08:00 +31°C° 0 mm 2 mps 750 mmHg 60%
    09:00 +32°C° 0 mm 2 mps 750 mmHg 56%
    10:00 +34°C° 0 mm 3 mps 750 mmHg 51%
    11:00 +35°C° 0 mm 3 mps 749 mmHg 46%
    12:00 +37°C° 0 mm 3 mps 748 mmHg 41%
    13:00 +36°C° 0 mm 4 mps 748 mmHg 41%
    14:00 +36°C° 0 mm 5 mps 747 mmHg 42%
    15:00 +36°C° 0 mm 6 mps 747 mmHg 42%
    16:00 +35°C° 0 mm 5 mps 747 mmHg 47%
    17:00 +34°C° 0 mm 4 mps 747 mmHg 51%
    18:00 +33°C° 0 mm 3 mps 748 mmHg 55%
    19:00 +33°C° 0 mm 3 mps 748 mmHg 58%
    20:00 +31°C° 0 mm 2 mps 748 mmHg 60%
    21:00 +31°C° 0 mm 2 mps 749 mmHg 63%
    22:00 +31°C° 0 mm 2 mps 749 mmHg 65%
    23:00 +30°C° 0 mm 2 mps 749 mmHg 67%

    21 November, Thursday

    Time Temperature Precipitation Wind Pressure Humidity
    00:00 +30°C° 0 mm 3 mps 748 mmHg 69%
    01:00 +30°C° 0 mm 2 mps 748 mmHg 71%
    02:00 +29°C° 0 mm 2 mps 748 mmHg 72%
    03:00 +29°C° 0 mm 2 mps 748 mmHg 74%
    04:00 +29°C° 0 mm 2 mps 748 mmHg 75%
    05:00 +29°C° 0 mm 3 mps 749 mmHg 75%
    06:00 +29°C° 0 mm 3 mps 749 mmHg 76%
    07:00 +30°C° 0.1 mm 3 mps 749 mmHg 70%
    08:00 +32°C° 0.1 mm 4 mps 750 mmHg 64%
    09:00 +33°C° 0.1 mm 4 mps 750 mmHg 58%
    10:00 +34°C° 0 mm 4 mps 750 mmHg 53%
    11:00 +35°C° 0 mm 3 mps 749 mmHg 48%
    12:00 +37°C° 0 mm 3 mps 748 mmHg 43%
    13:00 +36°C° 0.1 mm 4 mps 748 mmHg 46%
    14:00 +35°C° 0.1 mm 5 mps 748 mmHg 50%
    15:00 +34°C° 0.1 mm 6 mps 747 mmHg 54%
    16:00 +34°C° 0.1 mm 5 mps 747 mmHg 57%
    17:00 +33°C° 0.1 mm 4 mps 748 mmHg 61%
    18:00 +31°C° 0.1 mm 3 mps 748 mmHg 64%
    19:00 +31°C° 0 mm 3 mps 748 mmHg 66%
    20:00 +30°C° 0 mm 2 mps 749 mmHg 67%
    21:00 +30°C° 0 mm 2 mps 749 mmHg 68%
    22:00 +30°C° 0 mm 2 mps 749 mmHg 67%
    23:00 +30°C° 0 mm 2 mps 749 mmHg 66%

    22 November, Friday

    Time Temperature Precipitation Wind Pressure Humidity
    00:00 +30°C° 0 mm 2 mps 749 mmHg 64%
    01:00 +30°C° 0 mm 2 mps 749 mmHg 67%
    02:00 +30°C° 0 mm 2 mps 749 mmHg 69%
    03:00 +29°C° 0 mm 2 mps 749 mmHg 72%
    04:00 +29°C° 0 mm 2 mps 749 mmHg 74%
    05:00 +29°C° 0 mm 1 mps 749 mmHg 76%
    06:00 +28°C° 0 mm 1 mps 750 mmHg 79%
    07:00 +29°C° 0 mm 1 mps 750 mmHg 74%
    08:00 +30°C° 0 mm 2 mps 750 mmHg 69%
    09:00 +31°C° 0 mm 2 mps 751 mmHg 64%
    10:00 +34°C° 0 mm 2 mps 750 mmHg 57%
    11:00 +35°C° 0 mm 2 mps 750 mmHg 51%
    12:00 +36°C° 0 mm 2 mps 749 mmHg 44%
    13:00 +36°C° 0 mm 4 mps 749 mmHg 45%
    14:00 +36°C° 0 mm 5 mps 748 mmHg 47%
    15:00 +36°C° 0 mm 6 mps 747 mmHg 48%
    16:00 +34°C° 0.2 mm 5 mps 748 mmHg 53%
    17:00 +33°C° 0.2 mm 4 mps 748 mmHg 58%
    18:00 +31°C° 0.2 mm 3 mps 748 mmHg 63%
    19:00 +31°C° 0.1 mm 3 mps 749 mmHg 63%
    20:00 +31°C° 0.1 mm 3 mps 749 mmHg 63%
    21:00 +31°C° 0.1 mm 3 mps 750 mmHg 63%
    22:00 +31°C° 0 mm 3 mps 750 mmHg 64%
    23:00 +31°C° 0 mm 2 mps 750 mmHg 64%
    Show more